Regional Weather Roundup
Issued by NWS

Home | Current Version | Previous Version | Text Only | Print | Product List | Glossary Off
Versions: 1 2 3 4 5 6 7 8 9 10 11 12 13 14 15 16 17 18 19 20 21 22 23 24 25 26 27 28 29 30 31 32 33 34 35 36 37 38 39 40 41 42 43 44 45 46 47 48 49 50

000
ASUS44 KMEG 281200
RWRTN
TENNESSEE HOURLY STATE WEATHER ROUNDUP
NATIONAL WEATHER SERVICE MEMPHIS TN
600 AM CST WED JAN 28 2015

TNZ002-004-019-021-049-052-054-088>092-281300-
WEST TENNESSEE

CITY           SKY/WX    TMP DP  RH WIND       PRES   REMARKS
MEMPHIS INTL   CLEAR     36  28  73 E7        30.26R WCI  30
NWS MEMPHIS      N/A     31 N/A N/A MISG        N/A
JACKSON        CLEAR     29  25  85 E6        30.27R WCI  23
DYERSBURG      CLEAR     28  16  59 E6        30.28F WCI  22
UNION CITY     CLEAR     23  23 100 CALM      30.27S
PARIS          CLEAR     25  23  93 E5        30.29R WCI  19
LEXINGTON      CLEAR     23  21  93 CALM      30.27R
SAVANNAH         N/A     25  23  93 CALM      30.28R
$$

TNZ008-025-027-028-033-062-065-066-281300-
NORTH MIDDLE TENNESSEE

CITY           SKY/WX    TMP DP  RH WIND       PRES   REMARKS
NASHVILLE      CLOUDY    33  25  72 E9        30.31R WCI  25
CLARKSVILLE    CLOUDY    32  27  81 E7        30.30R WCI  26
COOKEVILLE     CLEAR     25  19  80 NE3       30.27R
CROSSVILLE     CLEAR     24  16  71 NE6       30.24R WCI  17
$$

TNZ061-075-076-078-094-096-097-281300-
SOUTH MIDDLE TENNESSEE

CITY           SKY/WX    TMP DP  RH WIND       PRES   REMARKS
FAYETTEVILLE   CLEAR     28  21  74 N15G29    30.25R WCI  17
TULLAHOMA      CLOUDY    30  23  74 NE7       30.26R WCI  23
WINCHESTER     CLOUDY    30  25  80 NE7       30.27R WCI  23
SHELBYVILLE    CLOUDY    32  28  86 NE7       30.29R WCI  26
$$

TNZ017-018-042-046-047-281300-
NORTHEAST TENNESSEE

CITY           SKY/WX    TMP DP  RH WIND       PRES   REMARKS
TRI CITIES     PTCLDY    17  11  77 CALM      30.27R
ELIZABETHTON   SUNNY     12  10  92 CALM      30.25R
$$

TNZ012-013-036-069-073-074-281300-
CENTRAL EAST TENNESSEE

CITY           SKY/WX    TMP DP  RH WIND       PRES   REMARKS
KNOXVILLE      CLEAR     24  17  74 NE6       30.28R WCI  17
OAK RIDGE      CLEAR     26  17  68 E3        30.30R
GATLINBURG     SUNNY     19  18  93 CALM      30.28R
$$

TNZ083-085-099-281300-
SOUTHEAST TENNESSEE

CITY           SKY/WX    TMP DP  RH WIND       PRES   REMARKS
CHATTANOOGA    CLOUDY    33  23  66 NE10      30.29R WCI  25
$$

SKY/WX REPORTED AS FAIR MEANS FEW OR NO CLOUDS BELOW
12 THOUSAND FEET.



USA.gov is the U.S. government's official web portal to all federal, state and local government web resources and services.